Lexington, NE

5:13 AM CDT on May 28, 2018 (GMT -0500)
Kelly

Weather History for KLXN - January, 2014

Change the Weather History Date:

Saturday, January 11, 2014

  Actual Average Record
Temperature  
Mean Temperature 38 °F -  
Max Temperature 53 °F 37 °F 64 °F (2006)
Min Temperature 22 °F 13 °F -9 °F (2011)
Degree Days  
Heating Degree Days 28    
Moisture  
Dew Point 23 °F    
Average Humidity 59    
Maximum Humidity 89    
Minimum Humidity 28    
Precipitation  
Precipitation 0.00 in - - ()
Sea Level Pressure  
Sea Level Pressure 29.78 in    
Wind  
Wind Speed 11 mph (West)    
Max Wind Speed 21 mph    
Max Gust Speed 26 mph    
Visibility 10 miles    
Events      
Averages and records for this station are not official NWS values.
T = Trace of Precipitation, MM = Missing Value Source: NWS Daily Summary

Daily Weather History Graph

Daily Weather History Graph

Search for Another Location

Airport or City:

Astronomy

Jan. 11, 2014 Rise Set
Actual Time 8:02 AM CST 5:31 PM CST
Civil Twilight 7:32 AM CST 6:02 PM CST
Nautical Twilight 6:58 AM CST 6:36 PM CST
Astronomical Twilight 6:25 AM CST 7:09 PM CST
Moon 2:17 PM CST (1/11) 4:08 AM CST (1/11)
Length of Visible Light 10h 30m
Length of Day
9h 29m
Waxing Gibbous, 83% of the Moon is Illuminated
Jan 11
Waxing Gibbous
Jan 15
Full
Jan 23
Last Quarter
Jan 30
New
Feb 6
First Quarter

Hourly Weather History & Observations

Time (CST) Temp. Windchill Dew Point Humidity Pressure Visibility Wind Dir Wind Speed Gust Speed Precip Events Conditions
12:15 AM 22.1 °F 12.0 °F 19.4 °F 89% 29.72 in 10.0 mi West 9.2 mph - N/A   Clear
12:35 AM 23.0 °F 13.1 °F 20.1 °F 89% 29.72 in 10.0 mi WNW 9.2 mph - N/A   Mostly Cloudy
12:55 AM 25.2 °F 15.7 °F 21.9 °F 87% 29.72 in 10.0 mi WNW 9.2 mph - N/A   Overcast
1:15 AM 26.8 °F 17.7 °F 23.0 °F 86% 29.71 in 10.0 mi West 9.2 mph - N/A   Overcast
1:35 AM 25.2 °F 15.7 °F 21.2 °F 85% 29.71 in 10.0 mi WNW 9.2 mph - N/A   Scattered Clouds
1:55 AM 26.1 °F 16.8 °F 21.9 °F 84% 29.72 in 10.0 mi West 9.2 mph - N/A   Mostly Cloudy
2:15 AM 24.4 °F 15.6 °F 20.5 °F 85% 29.73 in 10.0 mi West 8.1 mph - N/A   Scattered Clouds
2:30 AM 23.4 °F 15.2 °F 19.4 °F 85% 29.73 in 10.0 mi West 6.9 mph - N/A   Clear
2:55 AM 23.9 °F 18.0 °F 19.6 °F 84% 29.74 in 10.0 mi WNW 4.6 mph - N/A   Clear
3:15 AM 22.6 °F 14.3 °F 18.9 °F 85% 29.75 in 10.0 mi West 6.9 mph - N/A   Clear
3:35 AM 22.8 °F 14.5 °F 19.2 °F 86% 29.75 in 10.0 mi WNW 6.9 mph - N/A   Clear
3:55 AM 23.5 °F 13.7 °F 20.3 °F 87% 29.75 in 10.0 mi WNW 9.2 mph - N/A   Clear
4:15 AM 26.1 °F 16.2 °F 22.3 °F 86% 29.76 in 10.0 mi WNW 10.4 mph - N/A   Clear
4:35 AM 27.1 °F 15.9 °F 23.4 °F 86% 29.77 in 10.0 mi WNW 13.8 mph - N/A   Clear
4:55 AM 31.6 °F 21.2 °F 26.2 °F 80% 29.78 in 10.0 mi WNW 15.0 mph - N/A   Clear
5:15 AM 32.0 °F 21.6 °F 26.2 °F 79% 29.79 in 10.0 mi WNW 15.0 mph - N/A   Clear
5:35 AM 30.9 °F 19.8 °F 25.7 °F 81% 29.79 in 10.0 mi WNW 16.1 mph - N/A   Clear
5:55 AM 32.0 °F 21.6 °F 26.6 °F 80% 29.80 in 10.0 mi NW 15.0 mph - N/A   Clear
6:15 AM 32.0 °F 22.5 °F 26.6 °F 80% 29.81 in 10.0 mi NW 12.7 mph - N/A   Clear
6:35 AM 32.0 °F 23.0 °F 26.1 °F 79% 29.82 in 10.0 mi NW 11.5 mph - N/A   Clear
6:55 AM 32.2 °F 21.8 °F 26.2 °F 79% 29.83 in 10.0 mi NW 15.0 mph - N/A   Clear
7:15 AM 32.2 °F 22.3 °F 26.2 °F 79% 29.83 in 10.0 mi NW 13.8 mph - N/A   Clear
7:35 AM 32.4 °F 22.5 °F 26.2 °F 78% 29.83 in 10.0 mi WNW 13.8 mph - N/A   Clear
7:55 AM 32.4 °F 21.7 °F 26.2 °F 78% 29.83 in 10.0 mi NW 16.1 mph - N/A   Clear
8:15 AM 32.4 °F 22.5 °F 26.2 °F 78% 29.84 in 10.0 mi NW 13.8 mph 20.7 mph N/A   Clear
8:35 AM 32.2 °F 23.2 °F 25.7 °F 77% 29.84 in 10.0 mi NNW 11.5 mph - N/A   Clear
8:55 AM 32.0 °F 23.0 °F 25.7 °F 78% 29.85 in 10.0 mi NW 11.5 mph - N/A   Clear
9:15 AM 33.8 °F 25.8 °F 27.1 °F 77% 29.86 in 10.0 mi WNW 10.4 mph - N/A   Clear
9:35 AM 35.6 °F 25.9 °F 28.2 °F 75% 29.87 in 10.0 mi WNW 16.1 mph 20.7 mph N/A   Clear
9:55 AM 37.9 °F 29.2 °F 29.3 °F 71% 29.89 in 10.0 mi WNW 15.0 mph 20.7 mph N/A   Clear
10:15 AM 40.3 °F 31.0 °F 29.1 °F 64% 29.89 in 10.0 mi WNW 19.6 mph 25.3 mph N/A   Clear
10:35 AM 41.7 °F 32.9 °F 28.9 °F 61% 29.90 in 10.0 mi WNW 19.6 mph - N/A   Clear
10:55 AM 42.8 °F 34.0 °F 28.9 °F 58% 29.91 in 10.0 mi WNW 20.7 mph - N/A   Clear
11:10 AM 43.9 °F 36.5 °F 29.1 °F 56% 29.91 in 10.0 mi WNW 16.1 mph - N/A   Clear
11:35 AM 45.5 °F 38.3 °F 29.1 °F 53% 29.90 in 10.0 mi WNW 17.3 mph - N/A   Clear
11:55 AM 46.0 °F 39.0 °F 28.4 °F 50% 29.90 in 10.0 mi NW 17.3 mph - N/A   Clear
12:15 PM 47.1 °F - 28.2 °F 48% 29.88 in 10.0 mi NW 15.0 mph - N/A   Clear
12:35 PM 48.0 °F - 27.1 °F 44% 29.87 in 10.0 mi NW 11.5 mph - N/A   Clear
12:55 PM 48.7 °F - 26.4 °F 42% 29.86 in 10.0 mi NW 12.7 mph 17.3 mph N/A   Clear
1:15 PM 50.0 °F - 24.4 °F 37% 29.84 in 10.0 mi WNW 12.7 mph 18.4 mph N/A   Clear
1:35 PM 50.0 °F - 24.3 °F 37% 29.83 in 10.0 mi WNW 9.2 mph - N/A   Clear
1:55 PM 50.4 °F - 23.0 °F 34% 29.81 in 10.0 mi NW 11.5 mph 18.4 mph N/A   Clear
2:15 PM 52.0 °F - 23.4 °F 33% 29.81 in 10.0 mi West 9.2 mph - N/A   Clear
2:30 PM 52.2 °F - 21.6 °F 30% 29.82 in 10.0 mi West 8.1 mph - N/A   Clear
2:55 PM 52.7 °F - 21.6 °F 30% 29.81 in 10.0 mi West 8.1 mph - N/A   Clear
3:15 PM 52.7 °F - 21.6 °F 30% 29.81 in 10.0 mi West 10.4 mph - N/A   Clear
3:35 PM 53.1 °F - 21.4 °F 29% 29.80 in 10.0 mi West 8.1 mph - N/A   Clear
3:55 PM 53.2 °F - 21.2 °F 29% 29.80 in 10.0 mi West 4.6 mph - N/A   Clear
4:10 PM 53.8 °F - 21.0 °F 28% 29.79 in 10.0 mi WSW 4.6 mph - N/A   Clear
4:35 PM 53.2 °F - 22.1 °F 30% 29.78 in 10.0 mi WSW 8.1 mph - N/A   Clear
4:50 PM 52.0 °F - 22.1 °F 31% 29.77 in 10.0 mi WSW 6.9 mph - N/A   Clear
5:10 PM 49.1 °F - 21.6 °F 34% 29.77 in 10.0 mi SW 9.2 mph - N/A   Clear
5:35 PM 44.1 °F 40.1 °F 20.8 °F 40% 29.77 in 10.0 mi SSW 6.9 mph - N/A   Clear
5:55 PM 40.8 °F 35.0 °F 20.3 °F 44% 29.76 in 10.0 mi SSW 9.2 mph - N/A   Clear
6:15 PM 39.6 °F 33.5 °F 20.3 °F 46% 29.76 in 10.0 mi SSW 9.2 mph - N/A   Clear
6:30 PM 40.5 °F 35.1 °F 21.0 °F 46% 29.76 in 10.0 mi SSW 8.1 mph - N/A   Clear
6:55 PM 38.7 °F 32.9 °F 21.2 °F 50% 29.74 in 10.0 mi South 8.1 mph - N/A   Clear
7:10 PM 37.4 °F 31.4 °F 20.5 °F 51% 29.74 in 10.0 mi SSW 8.1 mph - N/A   Clear
7:35 PM 38.3 °F 33.2 °F 21.6 °F 51% 29.73 in 10.0 mi SSW 6.9 mph - N/A   Clear
7:50 PM 41.2 °F 34.5 °F 23.0 °F 48% 29.73 in 10.0 mi SSW 11.5 mph - N/A   Clear
8:10 PM 44.8 °F 37.7 °F 22.8 °F 42% 29.71 in 10.0 mi SSW 16.1 mph 20.7 mph N/A   Clear
8:35 PM 45.5 °F 38.6 °F 22.1 °F 40% 29.70 in 10.0 mi SSW 16.1 mph - N/A   Clear
8:55 PM 45.7 °F 38.8 °F 21.7 °F 39% 29.69 in 10.0 mi SSW 16.1 mph 23.0 mph N/A   Clear
9:15 PM 45.0 °F 37.6 °F 21.7 °F 40% 29.68 in 10.0 mi SSW 17.3 mph 23.0 mph N/A   Clear
9:35 PM 44.2 °F 37.0 °F 21.4 °F 40% 29.67 in 10.0 mi SSW 16.1 mph 21.9 mph N/A   Clear
9:55 PM 43.7 °F 36.3 °F 21.2 °F 41% 29.67 in 10.0 mi SSW 16.1 mph 20.7 mph N/A   Clear
10:15 PM 42.1 °F 33.6 °F 21.4 °F 44% 29.66 in 10.0 mi SW 18.4 mph - N/A   Clear
10:35 PM 42.3 °F 35.5 °F 21.2 °F 43% 29.65 in 10.0 mi SSW 12.7 mph 18.4 mph N/A   Clear
10:55 PM 42.6 °F 35.2 °F 21.2 °F 43% 29.64 in 10.0 mi SSW 15.0 mph 19.6 mph N/A   Clear
11:15 PM 42.3 °F 35.1 °F 21.0 °F 43% 29.63 in 10.0 mi SW 13.8 mph 20.7 mph N/A   Clear
11:35 PM 43.3 °F 35.0 °F 21.0 °F 41% 29.62 in 10.0 mi SW 19.6 mph 26.5 mph N/A   Clear
11:55 PM 43.0 °F 34.5 °F 20.8 °F 41% 29.61 in 10.0 mi SW 19.6 mph 26.5 mph N/A   Clear